Weather History for Santa Ana, CA

Change the Weather History Date:

Monday, March 14, 2011

  Actual Average Record
Temperature  
Mean Temperature 61 °F 59 °F  
Max Temperature 69 °F 67 °F 76 °F (2005)
Min Temperature 52 °F 52 °F 43 °F (2006)
Degree Days  
Heating Degree Days 4 6  
Month to date heating degree days 81 89  
Since 1 July heating degree days 826 995  
Cooling Degree Days 0 0  
Month to date cooling degree days 0 0  
Year to date cooling degree days 4 8  
Growing Degree Days 10 (Base 50)    
Moisture  
Dew Point 51 °F    
Average Humidity 72    
Maximum Humidity 89    
Minimum Humidity 55    
Precipitation  
Precipitation 0.00 in 0.04 in 0.75 in (1996)
Month to date precipitation 0.16 1.38  
Year to date precipitation 2.79 7.24  
Since 1 July precipitation 15.44 11.61  
Snow  
Snow 0.00 in - - ()
Month to date snowfall 0.0  
Year to date snowfall 0.0  
Since 1 July snowfall 0.0  
Snow Depth 0.00 in    
Sea Level Pressure  
Sea Level Pressure 30.14 in    
Wind  
Wind Speed 4 mph (SSW)    
Max Wind Speed 13 mph    
Max Gust Speed 15 mph    
Visibility 9 miles    
Events      
T = Trace of Precipitation, MM = Missing Value Source: NWS Daily Summary

Daily Weather History Graph

Daily Weather History Graph

Search for Another Location

Airport:

Trip Planner

Search our weather history database for the weather conditions in past years. The results will help you decide how hot, cold, wet, or windy it might be!

Date:

Astronomy

Mar. 14, 2011 Rise Set
Actual Time 7:03 AM PDT 6:58 PM PDT
Civil Twilight 6:38 AM PDT 7:23 PM PDT
Nautical Twilight 6:09 AM PDT 7:52 PM PDT
Astronomical Twilight 5:40 AM PDT 8:21 PM PDT
Moon 1:37 PM PDT (3/14) 3:13 AM PDT (3/14)
Length of Visible Light 12h 44m
Length of Day
11h 54m
Waxing Gibbous, 69% of the Moon is Illuminated
Mar 14
Waxing Gibbous
Mar 19
Full
Mar 26
Last Quarter
Apr 3
New
Apr 11
First Quarter

Hourly Weather History & Observations

Time (PDT) Temp. Dew Point Humidity Pressure Visibility Wind Dir Wind Speed Gust Speed Precip Events Conditions
12:53 AM 55.0 °F 50.0 °F 83% 30.19 in 8.0 mi Calm Calm - N/A   Clear
1:53 AM 55.0 °F 48.9 °F 80% 30.19 in 9.0 mi Calm Calm - N/A   Clear
2:53 AM 54.0 °F 48.9 °F 83% 30.17 in 9.0 mi Calm Calm - N/A   Clear
3:53 AM 53.1 °F 48.9 °F 86% 30.15 in 9.0 mi Calm Calm - N/A   Clear
4:53 AM 53.1 °F 48.9 °F 86% 30.14 in 9.0 mi Calm Calm - N/A   Clear
5:53 AM 52.0 °F 48.0 °F 86% 30.14 in 9.0 mi Calm Calm - N/A   Partly Cloudy
6:53 AM 53.1 °F 48.9 °F 86% 30.18 in 9.0 mi Calm Calm - N/A   Mostly Cloudy
7:53 AM 53.1 °F 48.9 °F 86% 30.17 in 7.0 mi ESE 4.6 mph - N/A   Scattered Clouds
8:53 AM 57.9 °F 50.0 °F 75% 30.19 in 7.0 mi Calm Calm - N/A   Scattered Clouds
9:53 AM 62.1 °F 51.1 °F 67% 30.19 in 6.0 mi Calm Calm - N/A   Haze
10:53 AM 64.9 °F 51.1 °F 61% 30.18 in 6.0 mi SW 4.6 mph - N/A   Haze
11:53 AM 66.9 °F 52.0 °F 59% 30.16 in 7.0 mi SW 4.6 mph - N/A   Mostly Cloudy
12:53 PM 68.0 °F 52.0 °F 56% 30.16 in 10.0 mi SSW 10.4 mph - N/A   Mostly Cloudy
1:53 PM 66.0 °F 51.1 °F 59% 30.14 in 10.0 mi SSW 9.2 mph - N/A   Clear
2:53 PM 66.9 °F 51.1 °F 57% 30.12 in 10.0 mi SW 6.9 mph - N/A   Scattered Clouds
3:53 PM 68.0 °F 52.0 °F 56% 30.10 in 10.0 mi SSW 5.8 mph - N/A   Scattered Clouds
4:53 PM 66.9 °F 52.0 °F 59% 30.09 in 10.0 mi SW 5.8 mph - N/A   Scattered Clouds
5:53 PM 66.0 °F 52.0 °F 60% 30.08 in 10.0 mi SSW 9.2 mph - N/A   Scattered Clouds
6:53 PM 61.0 °F 53.1 °F 75% 30.09 in 10.0 mi SSW 10.4 mph - N/A   Mostly Cloudy
7:53 PM 61.0 °F 53.1 °F 75% 30.09 in 10.0 mi SSW 6.9 mph - N/A   Mostly Cloudy
8:53 PM 60.1 °F 54.0 °F 80% 30.10 in 10.0 mi SSW 5.8 mph - N/A   Scattered Clouds
9:53 PM 60.1 °F 54.0 °F 80% 30.11 in 10.0 mi SW 5.8 mph - N/A   Clear
10:53 PM 59.0 °F 54.0 °F 83% 30.11 in 10.0 mi Calm Calm - N/A   Clear
11:53 PM 57.9 °F 54.0 °F 87% 30.12 in 9.0 mi SSW 3.5 mph - N/A   Clear